| time (UTC) | temp F | wind direction | speed MPH | gust MPH | rain 1hr in | rain 24hr in | rain mn in | humidity % | barometer mb |
| 20260505230213 | 74 | 243 | 3.0 | 13.0 | 0.00 | 0.00 | 0.00 | 47 | 968.6 |
| 20260505225212 | 74 | 180 | 4.0 | 12.0 | 0.00 | 0.00 | 0.00 | 46 | 968.5 |
| 20260505224713 | 74 | 175 | 3.0 | 12.0 | 0.00 | 0.00 | 0.00 | 46 | 968.5 |
| 20260505224210 | 74 | 211 | 3.0 | 14.0 | 0.00 | 0.00 | 0.00 | 46 | 968.6 |
| 20260505223707 | 75 | 213 | 4.0 | 14.0 | 0.00 | 0.00 | 0.00 | 46 | 968.5 |
| 20260505223205 | 75 | 223 | 2.0 | 14.0 | 0.00 | 0.00 | 0.00 | 47 | 968.6 |
| 20260505222706 | 75 | 192 | 2.0 | 12.0 | 0.00 | 0.00 | 0.00 | 47 | 968.5 |
| 20260505222205 | 75 | 316 | 3.0 | 12.0 | 0.00 | 0.00 | 0.00 | 48 | 968.5 |
| 20260505221706 | 75 | 153 | 4.0 | 12.0 | 0.00 | 0.00 | 0.00 | 47 | 968.5 |
| 20260505220705 | 74 | 219 | 5.0 | 14.0 | 0.00 | 0.00 | 0.00 | 47 | 968.5 |
| 20260505214702 | 76 | 243 | 8.0 | 21.0 | 0.00 | 0.00 | 0.00 | 44 | 968.7 |
| 20260505214202 | 76 | 136 | 5.0 | 21.0 | 0.00 | 0.00 | 0.00 | 43 | 968.8 |
| 20260505213701 | 76 | 159 | 4.0 | 14.0 | 0.00 | 0.00 | 0.00 | 44 | 968.7 |
| 20260505212659 | 76 | 184 | 6.0 | 18.0 | 0.00 | 0.00 | 0.00 | 43 | 968.8 |
| 20260505211658 | 76 | 242 | 7.0 | 14.0 | 0.00 | 0.00 | 0.00 | 45 | 969.0 |
| 20260505211152 | 76 | 174 | 6.0 | 15.0 | 0.00 | 0.00 | 0.00 | 45 | 969.1 |
| 20260505210647 | 76 | 213 | 6.0 | 15.0 | 0.00 | 0.00 | 0.00 | 45 | 969.1 |
| 20260505210140 | 76 | 211 | 6.0 | 14.0 | 0.00 | 0.00 | 0.00 | 45 | 969.1 |
| 20260505205634 | 76 | 187 | 4.0 | 14.0 | 0.00 | 0.00 | 0.00 | 44 | 969.0 |
| 20260505205129 | 76 | 227 | 3.0 | 12.0 | 0.00 | 0.00 | 0.00 | 46 | 969.1 |
| 20260505204117 | 77 | 47 | 7.0 | 16.0 | 0.00 | 0.00 | 0.00 | 44 | 969.1 |
| 20260505203610 | 77 | 175 | 6.0 | 16.0 | 0.00 | 0.00 | 0.00 | 44 | 969.1 |
| 20260505203105 | 77 | 174 | 5.0 | 15.0 | 0.00 | 0.00 | 0.00 | 43 | 969.1 |
| 20260505202053 | 77 | 209 | 5.0 | 15.0 | 0.00 | 0.00 | 0.00 | 45 | 969.2 |
| 20260505201547 | 78 | 183 | 4.0 | 15.0 | 0.00 | 0.00 | 0.00 | 44 | 969.3 |
| 20260505201041 | 77 | 205 | 4.0 | 11.0 | 0.00 | 0.00 | 0.00 | 44 | 969.3 |
| 20260505200535 | 77 | 158 | 5.0 | 19.0 | 0.00 | 0.00 | 0.00 | 44 | 969.5 |
| 20260505200029 | 77 | 201 | 6.0 | 19.0 | 0.00 | 0.00 | 0.00 | 43 | 969.4 |
| 20260505195017 | 76 | 181 | 7.0 | 20.0 | 0.00 | 0.00 | 0.00 | 43 | 969.6 |
| 20260505194511 | 76 | 243 | 6.0 | 20.0 | 0.00 | 0.00 | 0.00 | 44 | 969.5 |
| 20260505194005 | 77 | 169 | 5.0 | 20.0 | 0.00 | 0.00 | 0.00 | 44 | 969.5 |
| 20260505193459 | 77 | 190 | 6.0 | 20.0 | 0.00 | 0.00 | 0.00 | 44 | 969.6 |
| 20260505192446 | 77 | 188 | 8.0 | 25.0 | 0.00 | 0.00 | 0.00 | 45 | 969.5 |
| 20260505191940 | 77 | 217 | 5.0 | 16.0 | 0.00 | 0.00 | 0.00 | 44 | 969.6 |
| 20260505191434 | 77 | 298 | 5.0 | 18.0 | 0.00 | 0.00 | 0.00 | 44 | 969.8 |
| 20260505190928 | 77 | 221 | 5.0 | 18.0 | 0.00 | 0.00 | 0.00 | 45 | 970.0 |
| 20260505190423 | 77 | 238 | 3.0 | 10.0 | 0.00 | 0.00 | 0.00 | 46 | 970.1 |
| 20260505185411 | 77 | 144 | 5.0 | 22.0 | 0.00 | 0.00 | 0.00 | 45 | 970.2 |
| 20260505184905 | 77 | 274 | 3.0 | 15.0 | 0.00 | 0.00 | 0.00 | 46 | 970.2 |
| 20260505184358 | 77 | 224 | 6.0 | 22.0 | 0.00 | 0.00 | 0.00 | 46 | 970.3 |
| 20260505183853 | 76 | 198 | 6.0 | 22.0 | 0.00 | 0.00 | 0.00 | 45 | 970.5 |
| 20260505183346 | 76 | 169 | 4.0 | 14.0 | 0.00 | 0.00 | 0.00 | 47 | 970.4 |
| 20260505182841 | 76 | 192 | 5.0 | 14.0 | 0.00 | 0.00 | 0.00 | 47 | 970.6 |
| 20260505181829 | 76 | 344 | 4.0 | 16.0 | 0.00 | 0.00 | 0.00 | 47 | 970.6 |
| 20260505181323 | 76 | 248 | 4.0 | 11.0 | 0.00 | 0.00 | 0.00 | 49 | 970.7 |
| 20260505180816 | 76 | 247 | 4.0 | 14.0 | 0.00 | 0.00 | 0.00 | 48 | 970.7 |
| 20260505180310 | 76 | 160 | 4.0 | 14.0 | 0.00 | 0.00 | 0.00 | 49 | 970.8 |
| 20260505175805 | 76 | 269 | 4.0 | 12.0 | 0.00 | 0.00 | 0.00 | 50 | 971.0 |
| 20260505174752 | 75 | 165 | 5.0 | 14.0 | 0.00 | 0.00 | 0.00 | 50 | 971.1 |
| 20260505174246 | 75 | 165 | 5.0 | 16.0 | 0.00 | 0.00 | 0.00 | 49 | 971.0 |
| 20260505173740 | 74 | 161 | 5.0 | 16.0 | 0.00 | 0.00 | 0.00 | 50 | 971.2 |
| 20260505173235 | 75 | 215 | 6.0 | 19.0 | 0.00 | 0.00 | 0.00 | 47 | 971.0 |
| 20260505172729 | 76 | 178 | 5.0 | 19.0 | 0.00 | 0.00 | 0.00 | 48 | 970.9 |
| 20260505172223 | 76 | 254 | 4.0 | 12.0 | 0.00 | 0.00 | 0.00 | 48 | 970.8 |
| 20260505171717 | 76 | 311 | 3.0 | 12.0 | 0.00 | 0.00 | 0.00 | 44 | 971.0 |
| 20260505170159 | 76 | 324 | 5.0 | 14.0 | 0.00 | 0.00 | 0.00 | 50 | 971.1 |
| 20260505165652 | 75 | 285 | 4.0 | 11.0 | 0.00 | 0.00 | 0.00 | 47 | 971.1 |
| 20260505165147 | 75 | 225 | 4.0 | 11.0 | 0.00 | 0.00 | 0.00 | 49 | 971.1 |
| 20260505164641 | 75 | 301 | 3.0 | 12.0 | 0.00 | 0.00 | 0.00 | 49 | 971.1 |
| 20260505163629 | 74 | 126 | 5.0 | 20.0 | 0.00 | 0.00 | 0.00 | 51 | 971.5 |
| 20260505162121 | 73 | 219 | 5.0 | 15.0 | 0.00 | 0.00 | 0.00 | 52 | 971.5 |
| 20260505161621 | 73 | 200 | 5.0 | 15.0 | 0.00 | 0.00 | 0.00 | 53 | 971.5 |
| 20260505161121 | 72 | 150 | 4.0 | 14.0 | 0.00 | 0.00 | 0.00 | 56 | 971.4 |
| 20260505160621 | 72 | 194 | 4.0 | 11.0 | 0.00 | 0.00 | 0.00 | 54 | 971.7 |
| 20260505160121 | 72 | 209 | 4.0 | 11.0 | 0.00 | 0.00 | 0.00 | 54 | 971.7 |
| 20260505153120 | 71 | 225 | 3.0 | 12.0 | 0.00 | 0.00 | 0.00 | 60 | 971.9 |
| 20260505152616 | 71 | 249 | 2.0 | 10.0 | 0.00 | 0.00 | 0.00 | 59 | 971.9 |
| 20260505152112 | 71 | 198 | 2.0 | 10.0 | 0.00 | 0.00 | 0.00 | 60 | 971.9 |
| 20260505151614 | 70 | 168 | 1.0 | 9.0 | 0.00 | 0.00 | 0.00 | 60 | 971.9 |
| 20260505151113 | 69 | 231 | 1.0 | 6.0 | 0.00 | 0.00 | 0.00 | 63 | 971.9 |
| 20260505150607 | 69 | 250 | 2.0 | 7.0 | 0.00 | 0.00 | 0.00 | 62 | 971.9 |
| 20260505150107 | 68 | 168 | 3.0 | 10.0 | 0.00 | 0.00 | 0.00 | 63 | 971.9 |
| 20260505140605 | 65 | 173 | 3.0 | 8.0 | 0.00 | 0.00 | 0.00 | 66 | 971.9 |
| 20260505130105 | 59 | 233 | 0.0 | 0.0 | 0.00 | 0.00 | 0.00 | 80 | 971.7 |
| 20260505124609 | 55 | 231 | 0.0 | 0.0 | 0.00 | 0.00 | 0.00 | 87 | 971.6 |
| 20260505124108 | 53 | 231 | 0.0 | 0.0 | 0.00 | 0.00 | 0.00 | 90 | 971.6 |
| 20260505123607 | 52 | 231 | 0.0 | 0.0 | 0.00 | 0.00 | 0.00 | 92 | 971.5 |
| 20260505122103 | 50 | 231 | 0.0 | 0.0 | 0.00 | 0.00 | 0.00 | 93 | 971.6 |
| 20260505121603 | 49 | 231 | 0.0 | 0.0 | 0.00 | 0.00 | 0.00 | 93 | 971.5 |
| 20260505115059 | 46 | 231 | 0.0 | 0.0 | 0.00 | 0.00 | 0.00 | 93 | 971.3 |
| 20260505114555 | 46 | 231 | 0.0 | 0.0 | 0.00 | 0.00 | 0.00 | 93 | 971.3 |
| 20260505114056 | 46 | 231 | 0.0 | 0.0 | 0.00 | 0.00 | 0.00 | 93 | 971.4 |
| 20260505113554 | 45 | 231 | 0.0 | 0.0 | 0.00 | 0.00 | 0.00 | 93 | 971.4 |
| 20260505113050 | 45 | 231 | 0.0 | 0.0 | 0.00 | 0.00 | 0.00 | 93 | 971.3 |
| 20260505111546 | 43 | 231 | 0.0 | 0.0 | 0.00 | 0.00 | 0.00 | 93 | 971.3 |
| 20260505111046 | 43 | 231 | 0.0 | 0.0 | 0.00 | 0.00 | 0.00 | 93 | 971.2 |
| 20260505110546 | 43 | 231 | 0.0 | 0.0 | 0.00 | 0.00 | 0.00 | 93 | 971.2 |
| 20260505102032 | 44 | 231 | 0.0 | 0.0 | 0.00 | 0.00 | 0.00 | 92 | 971.1 |
| 20260505101530 | 44 | 231 | 0.0 | 0.0 | 0.00 | 0.00 | 0.00 | 92 | 971.1 |
| 20260505101030 | 44 | 231 | 0.0 | 0.0 | 0.00 | 0.00 | 0.00 | 92 | 971.1 |
| 20260505100530 | 45 | 231 | 0.0 | 0.0 | 0.00 | 0.00 | 0.00 | 91 | 971.0 |
| 20260505100028 | 45 | 231 | 0.0 | 0.0 | 0.00 | 0.00 | 0.00 | 91 | 971.0 |
| 20260505095017 | 45 | 231 | 0.0 | 2.0 | 0.00 | 0.00 | 0.00 | 91 | 971.1 |
| 20260505094509 | 45 | 231 | 0.0 | 0.0 | 0.00 | 0.00 | 0.00 | 91 | 971.1 |
| 20260505094004 | 46 | 231 | 0.0 | 0.0 | 0.00 | 0.00 | 0.00 | 90 | 971.1 |
| 20260505092952 | 46 | 231 | 0.0 | 0.0 | 0.00 | 0.00 | 0.00 | 89 | 971.0 |
| 20260505092447 | 46 | 231 | 0.0 | 0.0 | 0.00 | 0.00 | 0.00 | 89 | 971.0 |
| 20260505091940 | 47 | 231 | 0.0 | 0.0 | 0.00 | 0.00 | 0.00 | 88 | 971.0 |
| 20260505091433 | 47 | 231 | 0.0 | 0.0 | 0.00 | 0.00 | 0.00 | 88 | 970.9 |
| 20260505090927 | 48 | 231 | 0.0 | 0.0 | 0.00 | 0.00 | 0.00 | 88 | 970.8 |
| 20260505090421 | 48 | 231 | 0.0 | 0.0 | 0.00 | 0.00 | 0.00 | 87 | 970.7 |
| 20260505085915 | 48 | 231 | 0.0 | 0.0 | 0.00 | 0.00 | 0.00 | 86 | 970.8 |
| 20260505085409 | 49 | 231 | 0.0 | 0.0 | 0.00 | 0.00 | 0.00 | 86 | 970.7 |
| 20260505084904 | 49 | 231 | 0.0 | 0.0 | 0.00 | 0.00 | 0.00 | 84 | 970.5 |
| 20260505084358 | 50 | 231 | 0.0 | 0.0 | 0.00 | 0.00 | 0.00 | 83 | 970.5 |
| 20260505083852 | 50 | 231 | 0.0 | 0.0 | 0.00 | 0.00 | 0.00 | 83 | 970.4 |
| 20260505083346 | 51 | 231 | 0.0 | 0.0 | 0.00 | 0.00 | 0.00 | 82 | 970.3 |
| 20260505082839 | 51 | 231 | 0.0 | 0.0 | 0.00 | 0.00 | 0.00 | 80 | 970.3 |
| 20260505082334 | 52 | 231 | 1.0 | 3.0 | 0.00 | 0.00 | 0.00 | 80 | 970.4 |
| 20260505081827 | 52 | 231 | 1.0 | 3.0 | 0.00 | 0.00 | 0.00 | 80 | 970.3 |
| 20260505081321 | 52 | 231 | 1.0 | 3.0 | 0.00 | 0.00 | 0.00 | 81 | 970.3 |
| 20260505080817 | 52 | 231 | 0.0 | 0.0 | 0.00 | 0.00 | 0.00 | 79 | 970.3 |
| 20260505075805 | 53 | 231 | 0.0 | 2.0 | 0.00 | 0.00 | 0.00 | 77 | 970.1 |
| 20260505074752 | 54 | 231 | 0.0 | 2.0 | 0.00 | 0.00 | 0.00 | 76 | 969.9 |
| 20260505073233 | 55 | 230 | 1.0 | 5.0 | 0.00 | 0.00 | 0.00 | 74 | 969.9 |
| 20260505072727 | 56 | 166 | 1.0 | 5.0 | 0.00 | 0.00 | 0.00 | 73 | 969.9 |
| 20260505072222 | 56 | 202 | 1.0 | 5.0 | 0.00 | 0.00 | 0.00 | 72 | 969.9 |
| 20260505071716 | 56 | 202 | 3.0 | 9.0 | 0.00 | 0.00 | 0.00 | 73 | 969.9 |
| 20260505071210 | 55 | 183 | 2.0 | 9.0 | 0.00 | 0.00 | 0.00 | 73 | 969.8 |
| 20260505070158 | 55 | 251 | 1.0 | 3.0 | 0.00 | 0.00 | 0.00 | 73 | 969.7 |
| 20260505065653 | 56 | 220 | 1.0 | 3.0 | 0.00 | 0.00 | 0.00 | 72 | 969.6 |
| 20260505064640 | 57 | 173 | 0.0 | 0.0 | 0.00 | 0.00 | 0.00 | 70 | 969.9 |
| 20260505064134 | 57 | 173 | 0.0 | 4.0 | 0.00 | 0.00 | 0.00 | 70 | 969.9 |
| 20260505063627 | 57 | 173 | 1.0 | 4.0 | 0.00 | 0.00 | 0.00 | 69 | 969.9 |
| 20260505063122 | 58 | 246 | 0.0 | 2.0 | 0.00 | 0.00 | 0.00 | 69 | 969.9 |
| 20260505062616 | 58 | 246 | 0.0 | 2.0 | 0.00 | 0.00 | 0.00 | 69 | 969.9 |
| 20260505061604 | 58 | 246 | 0.0 | 0.0 | 0.00 | 0.00 | 0.00 | 67 | 969.9 |
| 20260505061058 | 59 | 246 | 0.0 | 1.0 | 0.00 | 0.00 | 0.00 | 67 | 970.0 |
| 20260505060552 | 59 | 246 | 0.0 | 3.0 | 0.00 | 0.00 | 0.00 | 66 | 970.0 |
| 20260505055539 | 59 | 246 | 0.0 | 2.0 | 0.00 | 0.00 | 0.00 | 66 | 970.0 |
| 20260505055034 | 60 | 246 | 1.0 | 3.0 | 0.00 | 0.00 | 0.00 | 64 | 970.0 |
| 20260505054527 | 60 | 246 | 1.0 | 5.0 | 0.00 | 0.00 | 0.00 | 64 | 970.0 |
| 20260505053517 | 60 | 169 | 1.0 | 5.0 | 0.00 | 0.00 | 0.00 | 64 | 970.0 |
| 20260505053010 | 60 | 225 | 2.0 | 8.0 | 0.00 | 0.00 | 0.00 | 63 | 970.0 |
| 20260505052504 | 60 | 194 | 2.0 | 8.0 | 0.00 | 0.00 | 0.00 | 63 | 970.0 |
| 20260505051958 | 61 | 235 | 1.0 | 7.0 | 0.00 | 0.00 | 0.00 | 63 | 970.0 |
| 20260505051452 | 61 | 151 | 2.0 | 7.0 | 0.00 | 0.00 | 0.00 | 63 | 969.9 |
| 20260505050952 | 61 | 177 | 3.0 | 7.0 | 0.00 | 0.00 | 0.00 | 63 | 969.9 |
| 20260505050452 | 61 | 184 | 3.0 | 7.0 | 0.00 | 0.00 | 0.00 | 63 | 969.9 |
| 20260505040947 | 53 | 242 | 0.0 | 2.0 | 0.00 | 0.00 | 0.00 | 79 | 969.9 |
| 20260505040446 | 53 | 242 | 0.0 | 2.0 | 0.00 | 0.00 | 0.00 | 80 | 970.0 |
| 20260505035947 | 53 | 242 | 0.0 | 0.0 | 0.00 | 0.00 | 0.00 | 79 | 970.0 |
| 20260505035440 | 53 | 242 | 0.0 | 0.0 | 0.00 | 0.00 | 0.00 | 79 | 970.0 |
| 20260505034934 | 54 | 242 | 0.0 | 0.0 | 0.00 | 0.00 | 0.00 | 78 | 970.1 |
| 20260505034427 | 54 | 242 | 0.0 | 0.0 | 0.00 | 0.00 | 0.00 | 77 | 970.1 |
| 20260505033922 | 54 | 242 | 0.0 | 0.0 | 0.00 | 0.00 | 0.00 | 77 | 970.2 |
| 20260505033415 | 54 | 242 | 0.0 | 0.0 | 0.00 | 0.00 | 0.00 | 77 | 970.2 |
| 20260505032910 | 55 | 242 | 0.0 | 0.0 | 0.00 | 0.00 | 0.00 | 76 | 970.2 |
| 20260505032404 | 55 | 242 | 0.0 | 0.0 | 0.00 | 0.00 | 0.00 | 75 | 970.2 |
| 20260505031858 | 55 | 242 | 0.0 | 0.0 | 0.00 | 0.00 | 0.00 | 75 | 970.3 |
| 20260505031352 | 56 | 242 | 0.0 | 0.0 | 0.00 | 0.00 | 0.00 | 74 | 970.2 |
| 20260505030846 | 56 | 242 | 0.0 | 0.0 | 0.00 | 0.00 | 0.00 | 73 | 970.3 |
| 20260505030341 | 57 | 242 | 0.0 | 0.0 | 0.00 | 0.00 | 0.00 | 71 | 970.3 |
| 20260505025834 | 57 | 242 | 0.0 | 0.0 | 0.00 | 0.00 | 0.00 | 70 | 970.3 |
| 20260505025327 | 58 | 242 | 0.0 | 0.0 | 0.00 | 0.00 | 0.00 | 70 | 970.3 |
| 20260505024822 | 58 | 242 | 0.0 | 0.0 | 0.00 | 0.00 | 0.00 | 68 | 970.3 |
| 20260505024316 | 58 | 242 | 0.0 | 0.0 | 0.00 | 0.00 | 0.00 | 67 | 970.4 |
| 20260505023303 | 59 | 242 | 0.0 | 0.0 | 0.00 | 0.00 | 0.00 | 67 | 970.2 |
| 20260505022759 | 60 | 242 | 0.0 | 0.0 | 0.00 | 0.00 | 0.00 | 65 | 970.2 |
| 20260505022251 | 60 | 242 | 0.0 | 0.0 | 0.00 | 0.00 | 0.00 | 65 | 970.2 |
| 20260505021245 | 61 | 242 | 0.0 | 0.0 | 0.00 | 0.00 | 0.00 | 63 | 970.2 |
| 20260505020242 | 62 | 242 | 0.0 | 0.0 | 0.00 | 0.00 | 0.00 | 62 | 970.1 |
| 20260505015739 | 62 | 242 | 0.0 | 0.0 | 0.00 | 0.00 | 0.00 | 61 | 970.1 |
| 20260505015241 | 62 | 242 | 0.0 | 0.0 | 0.00 | 0.00 | 0.00 | 60 | 970.1 |
| 20260505014740 | 62 | 242 | 0.0 | 1.0 | 0.00 | 0.00 | 0.00 | 60 | 970.0 |
| 20260505014237 | 63 | 242 | 0.0 | 1.0 | 0.00 | 0.00 | 0.00 | 59 | 969.9 |
| 20260505013738 | 63 | 242 | 0.0 | 1.0 | 0.00 | 0.00 | 0.00 | 59 | 969.8 |
| 20260505013236 | 64 | 242 | 0.0 | 0.0 | 0.00 | 0.00 | 0.00 | 58 | 969.8 |
| 20260505012736 | 64 | 242 | 0.0 | 0.0 | 0.00 | 0.00 | 0.00 | 57 | 969.8 |
| 20260505012235 | 65 | 242 | 0.0 | 2.0 | 0.00 | 0.00 | 0.00 | 55 | 969.7 |
| 20260505011736 | 65 | 242 | 0.0 | 2.0 | 0.00 | 0.00 | 0.00 | 54 | 969.7 |
| 20260505011237 | 66 | 242 | 0.0 | 1.0 | 0.00 | 0.00 | 0.00 | 54 | 969.7 |
| 20260505010735 | 66 | 242 | 0.0 | 0.0 | 0.00 | 0.00 | 0.00 | 53 | 969.6 |
| 20260505010236 | 67 | 242 | 0.0 | 3.0 | 0.00 | 0.00 | 0.00 | 53 | 969.6 |
| 20260505005733 | 67 | 242 | 0.0 | 3.0 | 0.00 | 0.00 | 0.00 | 52 | 969.6 |
| 20260505004230 | 67 | 177 | 0.0 | 3.0 | 0.00 | 0.00 | 0.00 | 51 | 969.3 |
| 20260505003729 | 68 | 257 | 0.0 | 3.0 | 0.00 | 0.00 | 0.00 | 52 | 969.3 |
| 20260505003230 | 68 | 197 | 0.0 | 2.0 | 0.00 | 0.00 | 0.00 | 49 | 969.2 |
| 20260505002729 | 69 | 197 | 0.0 | 4.0 | 0.00 | 0.00 | 0.00 | 50 | 969.2 |
| 20260505002229 | 69 | 197 | 0.0 | 5.0 | 0.00 | 0.00 | 0.00 | 50 | 969.2 |
| 20260505001730 | 70 | 217 | 0.0 | 5.0 | 0.00 | 0.00 | 0.00 | 49 | 969.2 |
| 20260505000727 | 71 | 240 | 0.0 | 4.0 | 0.00 | 0.00 | 0.00 | 47 | 969.2 |
| 20260505000226 | 71 | 240 | 1.0 | 6.0 | 0.00 | 0.00 | 0.00 | 45 | 969.2 |
| 20260504235726 | 72 | 219 | 0.0 | 6.0 | 0.00 | 0.00 | 0.00 | 45 | 969.0 |
| 20260504235227 | 72 | 165 | 1.0 | 11.0 | 0.00 | 0.00 | 0.00 | 44 | 969.0 |
| 20260504234726 | 73 | 236 | 2.0 | 11.0 | 0.00 | 0.00 | 0.00 | 44 | 969.0 |
| 20260504234225 | 73 | 175 | 2.0 | 8.0 | 0.00 | 0.00 | 0.00 | 44 | 968.9 |
| 20260504233226 | 74 | 165 | 2.0 | 7.0 | 0.00 | 0.00 | 0.00 | 42 | 968.8 |
| 20260504232726 | 74 | 182 | 2.0 | 8.0 | 0.00 | 0.00 | 0.00 | 42 | 968.8 |
| 20260504232221 | 74 | 179 | 1.0 | 8.0 | 0.00 | 0.00 | 0.00 | 42 | 968.8 |
| 20260504231222 | 75 | 196 | 3.0 | 11.0 | 0.00 | 0.00 | 0.00 | 42 | 968.7 |
| 20260504230721 | 75 | 195 | 3.0 | 14.0 | 0.00 | 0.00 | 0.00 | 42 | 968.7 |